H1 CPF 2 NER 2024 5 7 9 128 01 glonass133 H2 1403201 9133 40001 2024 5 7 0 0 0 2024 5 10 23 45 0 900 1 1 0 0 0 1 H9 10 0 60437 0.00000 0 -1412784.960 20149302.740 -15598446.810 10 0 60437 900.00000 0 -1944733.869 21843366.927 -13054361.098 10 0 60437 1800.00000 0 -2242722.046 23261744.852 -10257082.709 10 0 60437 2700.00000 0 -2341762.303 24354534.359 -7260862.488 10 0 60437 3600.00000 0 -2285769.833 25081931.658 -4123808.318 10 0 60437 4500.00000 0 -2125463.754 25415866.011 -906762.635 10 0 60437 5400.00000 0 -1915982.053 25341163.428 2327873.621 10 0 60437 6300.00000 0 -1714310.825 24856190.504 5517348.069 10 0 60437 7200.00000 0 -1576636.588 23972951.095 8599771.621 10 0 60437 8100.00000 0 -1555733.765 22716631.414 11515317.374 10 0 60437 9000.00000 0 -1698498.013 21124612.032 14207380.410 10 0 60437 9900.00000 0 -2043730.078 19244987.638 16623675.936 10 0 60437 10800.00000 0 -2620264.374 17134655.883 18717254.495 10 0 60437 11700.00000 0 -3445522.083 14857054.628 20447414.582 10 0 60437 12600.00000 0 -4524550.839 12479641.537 21780494.992 10 0 60437 13500.00000 0 -5849592.744 10071220.688 22690531.599 10 0 60437 14400.00000 0 -7400200.328 7699227.142 23159765.826 10 0 60437 15300.00000 0 -9143897.203 5427082.207 23178994.836 10 0 60437 16200.00000 0 -11037357.352 3311729.168 22747756.469 10 0 60437 17100.00000 0 -13028055.195 1401451.720 21874344.955 10 0 60437 18000.00000 0 -15056318.741 -265934.299 20575656.614 10 0 60437 18900.00000 0 -17057701.042 -1664440.873 18876867.930 10 0 60437 19800.00000 0 -18965571.490 -2780763.130 16810951.589 10 0 60437 20700.00000 0 -20713818.893 -3614594.717 14418039.251 10 0 60437 21600.00000 0 -22239553.166 -4178390.715 11744642.951 10 0 60437 22500.00000 0 -23485692.123 -4496588.776 8842749.898 10 0 60437 23400.00000 0 -24403324.308 -4604322.189 5768808.270 10 0 60437 24300.00000 0 -24953747.982 -4545680.213 2582623.964 10 0 60437 25200.00000 0 -25110099.902 -4371590.302 -653809.741 10 0 60437 26100.00000 0 -24858504.790 -4137413.075 -3877526.018 10 0 60437 27000.00000 0 -24198696.716 -3900353.139 -7025817.280 10 0 60437 27900.00000 0 -23144086.101 -3716796.686 -10037462.000 10 0 60437 28800.00000 0 -21721269.580 -3639689.833 -12853920.740 10 0 60437 29700.00000 0 -19969003.654 -3716069.688 -15420477.424 10 0 60437 30600.00000 0 -17936685.677 -3984853.439 -17687303.276 10 0 60437 31500.00000 0 -15682406.444 -4474979.473 -19610422.576 10 0 60437 32400.00000 0 -13270656.378 -5203979.354 -21152561.784 10 0 60437 33300.00000 0 -10769781.527 -6177041.063 -22283866.087 10 0 60437 34200.00000 0 -8249295.675 -7386603.008 -22982470.263 10 0 60437 35100.00000 0 -5777160.297 -8812495.937 -23234913.740 10 0 60437 36000.00000 0 -3417145.016 -10422626.966 -23036392.752 10 0 60437 36900.00000 0 -1226377.422 -12174177.256 -22390845.571 10 0 60437 37800.00000 0 746817.142 -14015263.666 -21310869.856 10 0 60437 38700.00000 0 2464697.466 -15886995.396 -19817474.154 10 0 60437 39600.00000 0 3901437.539 -17725840.358 -17939668.540 10 0 60437 40500.00000 0 5043953.018 -19466203.087 -15713902.248 10 0 60437 41400.00000 0 5892190.303 -21043107.273 -13183358.867 10 0 60437 42300.00000 0 6458867.588 -22394871.391 -10397122.329 10 0 60437 43200.00000 0 6768680.079 -23465666.143 -7409229.319 10 0 60437 44100.00000 0 6857003.741 -24207847.048 -4277625.929 10 0 60437 45000.00000 0 6768152.868 -24583964.680 -1063048.355 10 0 60437 45900.00000 0 6553265.392 -24568368.304 2172151.026 10 0 60437 46800.00000 0 6267905.485 -24148335.446 5365209.696 10 0 60437 47700.00000 0 5969484.851 -23324679.562 8454169.838 10 0 60437 48600.00000 0 5714611.825 -22111809.770 11379078.480 10 0 60437 49500.00000 0 5556480.460 -20537239.379 14083149.667 10 0 60437 50400.00000 0 5542410.155 -18640562.994 16513866.066 10 0 60437 51300.00000 0 5711640.124 -16471944.161 18623998.646 10 0 60437 52200.00000 0 6093472.348 -14090175.878 20372524.709 10 0 60437 53100.00000 0 6705842.066 -11560394.169 21725426.470 10 0 60437 54000.00000 0 7554376.997 -8951539.263 22656354.765 10 0 60437 54900.00000 0 8631986.058 -6333669.473 23147145.020 10 0 60437 55800.00000 0 9918996.163 -3775238.994 23188175.352 10 0 60437 56700.00000 0 11383832.778 -1340452.333 22778559.654 10 0 60437 57600.00000 0 12984217.098 913195.013 21926171.577 10 0 60437 58500.00000 0 14668830.934 2937087.698 20647498.416 10 0 60437 59400.00000 0 16379380.635 4693283.455 18967327.155 10 0 60437 60300.00000 0 18052974.375 6155853.496 16918268.099 10 0 60437 61200.00000 0 19624713.576 7311714.858 14540124.739 10 0 60437 62100.00000 0 21030389.898 8160920.489 11879121.564 10 0 60437 63000.00000 0 22209174.340 8716395.637 8987004.517 10 0 60437 63900.00000 0 23106184.927 9003132.490 5920031.545 10 0 60437 64800.00000 0 23674824.309 9056878.019 2737873.102 10 0 60437 65700.00000 0 23878788.075 8922371.572 -497555.500 10 0 60437 66600.00000 0 23693658.418 8651207.928 -3723306.358 10 0 60437 67500.00000 0 23108015.359 8299417.571 -6876631.407 10 0 60437 68400.00000 0 22124018.223 7924867.875 -9896210.046 10 0 60437 69300.00000 0 20757432.627 7584596.487 -12723347.163 10 0 60437 70200.00000 0 19037101.814 7332190.823 -15303117.548 10 0 60437 71100.00000 0 17003884.663 7215325.386 -17585434.029 10 0 60437 72000.00000 0 14709105.200 7273561.584 -19526018.424 10 0 60437 72900.00000 0 12212578.823 7536503.265 -21087256.681 10 0 60437 73800.00000 0 9580297.940 8022385.825 -22238922.184 10 0 60437 74700.00000 0 6881873.649 8737158.250 -22958753.916 10 0 60437 75600.00000 0 4187839.826 9674096.520 -23232879.234 10 0 60437 76500.00000 0 1566931.255 10813964.456 -23056073.988 10 0 60437 77400.00000 0 -916551.846 12125715.193 -22431855.834 10 0 60437 78300.00000 0 -3205184.589 13567703.952 -21372409.620 10 0 60437 79200.00000 0 -5250563.429 15089361.538 -19898346.754 10 0 60437 80100.00000 0 -7015069.790 16633258.917 -18038303.406 10 0 60437 81000.00000 0 -8473179.600 18137476.965 -15828385.271 10 0 60437 81900.00000 0 -9612265.821 19538182.791 -13311469.320 10 0 60437 82800.00000 0 -10432862.058 20772305.330 -10536375.677 10 0 60437 83700.00000 0 -10948377.609 21780198.620 -7556925.106 10 0 60437 84600.00000 0 -11184277.103 22508181.516 -4430899.859 10 0 60437 85500.00000 0 -11176760.072 22910847.466 -1218927.583 10 0 60438 0.00000 0 -10970996.738 22953047.425 2016690.161 10 0 60438 900.00000 0 -10618994.632 22611462.334 5213184.028 10 0 60438 1800.00000 0 -10177186.627 21875698.678 8308530.064 10 0 60438 2700.00000 0 -9703841.989 20748860.496 11242652.202 10 0 60438 3600.00000 0 -9256410.110 19247572.833 13958586.471 10 0 60438 4500.00000 0 -8888909.136 17401454.703 16403585.992 10 0 60438 5400.00000 0 -8649469.919 15252062.531 18530145.067 10 0 60438 6300.00000 0 -8578139.217 12851347.090 20296922.556 10 0 60438 7200.00000 0 -8705035.241 10259687.299 21669546.617 10 0 60438 8100.00000 0 -9048933.866 7543581.801 22621285.288 10 0 60438 9000.00000 0 -9616345.824 4773093.535 23133569.882 10 0 60438 9900.00000 0 -10401124.653 2019152.801 23196360.937 10 0 60438 10800.00000 0 -11384622.946 -649169.720 22808349.413 10 0 60438 11700.00000 0 -12536391.507 -3167307.258 21976988.883 10 0 60438 12600.00000 0 -13815393.130 -5477649.017 20718357.574 10 0 60438 13500.00000 0 -15171681.082 -7531698.433 19056852.388 10 0 60438 14400.00000 0 -16548472.553 -9291848.126 17024720.132 10 0 60438 15300.00000 0 -17884530.535 -10732697.899 14661434.489 10 0 60438 16200.00000 0 -19116754.181 -11841861.186 12012930.320 10 0 60438 17100.00000 0 -20182868.567 -12620226.812 9130709.826 10 0 60438 18000.00000 0 -21024100.183 -13081665.822 6070837.914 10 0 60438 18900.00000 0 -21587724.744 -13252196.636 2892846.548 10 0 60438 19800.00000 0 -21829379.091 -13168644.806 -341430.153 10 0 60438 20700.00000 0 -21715038.739 -12876855.141 -3569066.580 10 0 60438 21600.00000 0 -21222576.819 -12429533.083 -6727277.624 10 0 60438 22500.00000 0 -20342837.936 -11883807.910 -9754647.071 10 0 60438 23400.00000 0 -19080181.084 -11298622.150 -12592327.563 10 0 60438 24300.00000 0 -17452468.466 -10732058.740 -15185188.060 10 0 60438 25200.00000 0 -15490500.468 -10238719.841 -17482886.095 10 0 60438 26100.00000 0 -13236920.541 -9867268.685 -19440843.777 10 0 60438 27000.00000 0 -10744635.905 -9658238.523 -21021108.859 10 0 60438 27900.00000 0 -8074820.157 -9642201.068 -22193084.682 10 0 60438 28800.00000 0 -5294581.124 -9838371.361 -22934115.572 10 0 60438 29700.00000 0 -2474390.853 -10253707.346 -23229917.305 10 0 60438 30600.00000 0 314615.809 -10882541.534 -23074845.211 10 0 60438 31500.00000 0 3003362.548 -11706759.797 -22471995.617 10 0 60438 32400.00000 0 5527460.802 -12696519.470 -21433139.348 10 0 60438 33300.00000 0 7829638.998 -13811476.517 -19978489.045 10 0 60438 34200.00000 0 9861872.306 -15002470.344 -18136305.003 10 0 60438 35100.00000 0 11587125.939 -16213595.869 -15942347.108 10 0 60438 36000.00000 0 12980641.021 -17384576.336 -13439183.206 10 0 60438 36900.00000 0 14030710.945 -18453337.763 -10675366.876 10 0 60438 37800.00000 0 14738917.200 -19358677.420 -7704500.062 10 0 60438 38700.00000 0 15119816.030 -20042914.649 -4584198.133 10 0 60438 39600.00000 0 15200090.076 -20454412.833 -1374977.062 10 0 60438 40500.00000 0 15017201.388 -20549866.534 1860916.110 10 0 60438 41400.00000 0 14617603.035 -20296257.408 5060707.116 10 0 60438 42300.00000 0 14054584.979 -19672396.150 8162309.364 10 0 60438 43200.00000 0 13385845.216 -18669984.984 11105526.394 10 0 60438 44100.00000 0 12670888.714 -17294155.039 13833218.632 10 0 60438 45000.00000 0 11968363.901 -15563454.973 16292411.717 10 0 60438 45900.00000 0 11333449.114 -13509290.007 18435324.961 10 0 60438 46800.00000 0 10815399.252 -11174833.484 20220300.034 10 0 60438 47700.00000 0 10455356.236 -8613455.063 21612611.857 10 0 60438 48600.00000 0 10284515.767 -5886729.823 22585146.037 10 0 60438 49500.00000 0 10322727.975 -3062109.942 23118929.716 10 0 60438 50400.00000 0 10577591.420 -210354.827 23203505.384 10 0 60438 51300.00000 0 11044079.212 2597174.408 22837140.239 10 0 60438 52200.00000 0 11704713.783 5291244.424 22026866.640 10 0 60438 53100.00000 0 12530283.768 7807390.170 20788352.381 10 0 60438 54000.00000 0 13481073.633 10088357.134 19145602.720 10 0 60438 54900.00000 0 14508555.013 12086243.989 17130499.273 10 0 60438 55800.00000 0 15557469.045 13764256.636 14782184.136 10 0 60438 56700.00000 0 16568212.229 15098000.774 12146300.667 10 0 60438 57600.00000 0 17479425.205 16076259.340 9274105.379 10 0 60438 58500.00000 0 18230674.893 16701222.796 6221468.125 10 0 60438 59400.00000 0 18765116.169 16988163.320 3047780.290 10 0 60438 60300.00000 0 19032019.859 16964567.564 -185207.340 10 0 60438 61200.00000 0 18989059.319 16668765.589 -3414593.604 10 0 60438 62100.00000 0 18604258.038 16148115.101 -6577558.477 10 0 60438 63000.00000 0 17857515.125 15456818.960 -9612592.184 10 0 60438 63900.00000 0 16741643.506 14653469.465 -12460697.036 10 0 60438 64800.00000 0 15262876.495 13798424.367 -15066537.925 10 0 60438 65700.00000 0 13440820.955 12951126.403 -17379518.666 10 0 60438 66600.00000 0 11307858.751 12167480.204 -19354763.076 10 0 60438 67500.00000 0 8908021.459 11497397.572 -20953981.972 10 0 60438 68400.00000 0 6295385.214 10982614.566 -22146209.777 10 0 60438 69300.00000 0 3532052.641 10654871.987 -22908397.157 10 0 60438 70200.00000 0 685805.638 10534535.207 -23225849.149 10 0 60438 71100.00000 0 -2172473.764 10629710.620 -23092501.221 10 0 60438 72000.00000 0 -4971507.936 10935895.041 -22511028.775 10 0 60438 72900.00000 0 -7642342.182 11436172.034 -21492788.722 10 0 60438 73800.00000 0 -10120965.552 12101946.382 -20057594.695 10 0 60438 74700.00000 0 -12350726.390 12894185.480 -18233330.521 10 0 60438 75600.00000 0 -14284443.649 13765115.432 -16055409.352 10 0 60438 76500.00000 0 -15886127.664 14660300.667 -13566088.675 10 0 60438 77400.00000 0 -17132240.056 15521019.961 -10813654.064 10 0 60438 78300.00000 0 -18012441.584 16286839.256 -7851486.970 10 0 60438 79200.00000 0 -18529797.826 16898273.376 -4737034.056 10 0 60438 80100.00000 0 -18700435.083 17299424.852 -1530697.667 10 0 60438 81000.00000 0 -18552661.685 17440488.783 1705331.481 10 0 60438 81900.00000 0 -18125592.216 17280018.128 4908277.009 10 0 60438 82800.00000 0 -17467332.843 16786853.614 8015991.761 10 0 60438 83700.00000 0 -16632804.401 15941636.370 10968161.385 10 0 60438 84600.00000 0 -15681294.944 14737838.707 13707473.299 10 0 60438 85500.00000 0 -14673844.900 13182268.571 16180728.319 10 0 60439 0.00000 0 -13670574.992 11295025.309 18339873.236 10 0 60439 900.00000 0 -12728068.858 9108906.036 20142935.479 10 0 60439 1800.00000 0 -11896921.863 6668288.435 21554838.898 10 0 60439 2700.00000 0 -11219557.471 4027531.755 22548088.800 10 0 60439 3600.00000 0 -10728404.466 1248963.586 23103309.955 10 0 60439 4500.00000 0 -10444511.357 -1599466.016 23209628.233 10 0 60439 5400.00000 0 -10376656.586 -4446766.489 22864888.058 10 0 60439 6300.00000 0 -10520992.380 -7221618.443 22075701.113 10 0 60439 7200.00000 0 -10861237.645 -9855103.006 20857324.811 10 0 60439 8100.00000 0 -11369412.309 -12283335.902 19233372.347 10 0 60439 9000.00000 0 -12007082.582 -14449896.986 17235359.258 10 0 60439 9900.00000 0 -12727065.030 -16307954.221 14902094.714 10 0 60439 10800.00000 0 -13475517.709 -17821993.676 12278928.855 10 0 60439 11700.00000 0 -14194330.067 -18969083.462 9416870.432 10 0 60439 12600.00000 0 -14823710.285 -19739618.949 6371591.900 10 0 60439 13500.00000 0 -15304860.144 -20137518.512 3202341.472 10 0 60439 14400.00000 0 -15582623.484 -20179862.222 -29216.183 10 0 60439 15300.00000 0 -15607995.261 -19895989.588 -3260207.296 10 0 60439 16200.00000 0 -15340384.064 -19326095.414 -6427780.022 10 0 60439 17100.00000 0 -14749531.381 -18519384.209 -9470334.220 10 0 60439 18000.00000 0 -13817005.642 -17531862.270 -12328725.131 10 0 60439 18900.00000 0 -12537207.146 -16423861.793 -14947416.834 10 0 60439 19800.00000 0 -10917840.929 -15257402.518 -17275562.572 10 0 60439 20700.00000 0 -8979837.205 -14093502.910 -19267990.801 10 0 60439 21600.00000 0 -6756722.352 -12989554.613 -20886077.993 10 0 60439 22500.00000 0 -4293466.515 -11996870.737 -22098491.786 10 0 60439 23400.00000 0 -1644855.693 -11158510.780 -22881790.787 10 0 60439 24300.00000 0 1126544.113 -10507472.917 -23220870.314 10 0 60439 25200.00000 0 3952746.432 -10065328.642 -23109246.394 10 0 60439 26100.00000 0 6762930.022 -9841356.029 -22549173.381 10 0 60439 27000.00000 0 9486144.166 -9832206.876 -21551593.632 10 0 60439 27900.00000 0 12054022.218 -10022120.709 -20135920.693 10 0 60439 28800.00000 0 14403391.869 -10383675.849 -18329660.422 10 0 60439 29700.00000 0 16478674.913 -10879045.412 -16167877.355 10 0 60439 30600.00000 0 18233978.046 -11461705.141 -13692516.374 10 0 60439 31500.00000 0 19634788.879 -12078521.146 -10951592.435 10 0 60439 32400.00000 0 20659207.652 -12672129.781 -7998263.552 10 0 60439 33300.00000 0 21298664.271 -13183509.583 -4889804.458 10 0 60439 34200.00000 0 21558091.559 -13554637.076 -1686500.426 10 0 60439 35100.00000 0 21455548.165 -13731114.567 1549517.703 10 0 60439 36000.00000 0 21021307.488 -13664659.035 4755474.987 10 0 60439 36900.00000 0 20296451.190 -13315346.893 7869167.122 10 0 60439 37800.00000 0 19331026.614 -12653519.440 10830165.045 10 0 60439 38700.00000 0 18181845.617 -11661267.908 13580986.017 10 0 60439 39600.00000 0 16910017.334 -10333434.525 16068208.468 10 0 60439 40500.00000 0 15578318.541 -8678086.163 18243509.023 10 0 60439 41400.00000 0 14248511.971 -6716439.154 20064601.606 10 0 60439 42300.00000 0 12978725.141 -4482236.757 21496060.458 10 0 60439 43200.00000 0 11820999.666 -2020603.568 22510011.143 10 0 60439 44100.00000 0 10819113.817 613576.996 23086676.136 10 0 60439 45000.00000 0 10006769.727 3357696.093 23214764.297 10 0 60439 45900.00000 0 9406221.342 6143780.443 22891696.452 10 0 60439 46800.00000 0 9027400.785 8901083.906 22123662.375 10 0 60439 47700.00000 0 8867579.986 11558802.671 20925507.516 10 0 60439 48600.00000 0 8911581.913 14048801.813 19320451.124 10 0 60439 49500.00000 0 9132532.655 16308240.092 17339640.545 10 0 60439 50400.00000 0 9493122.750 18281983.808 15021549.744 10 0 60439 51300.00000 0 9947324.490 19924709.061 12411233.222 10 0 60439 52200.00000 0 10442492.502 21202604.609 9559449.478 10 0 60439 53100.00000 0 10921758.405 22094604.064 6521671.001 10 0 60439 54000.00000 0 11326617.623 22593095.957 3357000.259 10 0 60439 54900.00000 0 11599598.056 22704082.208 127013.242 10 0 60439 55800.00000 0 11686896.621 22446778.913 -3105446.169 10 0 60439 56700.00000 0 11540870.986 21852677.055 -6277496.661 10 0 60439 57600.00000 0 11122279.940 20964103.721 -9327449.903 10 0 60439 58500.00000 0 10402176.606 19832345.552 -12196016.010 10 0 60439 59400.00000 0 9363373.625 18515414.663 -14827459.925 10 0 60439 60300.00000 0 8001417.684 17075552.189 -17170685.746 10 0 60439 61200.00000 0 6325031.778 15576575.425 -19180227.738 10 0 60439 62100.00000 0 4356006.079 14081180.700 -20817128.978 10 0 60439 63000.00000 0 2128541.611 12648315.513 -22049691.084 10 0 60439 63900.00000 0 -311926.176 11330730.069 -22854081.169 10 0 60439 64800.00000 0 -2910375.206 10172810.282 -23214785.204 10 0 60439 65700.00000 0 -5604247.759 9208782.167 -23124899.919 10 0 60439 66600.00000 0 -8325819.823 8461361.655 -22586258.485 10 0 60439 67500.00000 0 -11004791.100 7940905.069 -21609388.252 10 0 60439 68400.00000 0 -13570988.901 7645094.522 -20213301.879 10 0 60439 69300.00000 0 -15957074.626 7559170.192 -18425126.124 10 0 60439 70200.00000 0 -18101141.433 7656698.705 -16279575.472 10 0 60439 71100.00000 0 -19949096.208 7900844.542 -13818280.537 10 0 60439 72000.00000 0 -21456727.756 8246090.541 -11088983.834 10 0 60439 72900.00000 0 -22591376.010 8640334.802 -8144618.033 10 0 60439 73800.00000 0 -23333133.509 9027275.578 -5042283.986 10 0 60439 74700.00000 0 -23675529.605 9348983.614 -1842147.926 10 0 60439 75600.00000 0 -23625669.374 9548553.453 1393721.175 10 0 60439 76500.00000 0 -23203821.763 9572721.755 4602551.841 10 0 60439 77400.00000 0 -22442474.508 9374341.900 7722084.726 10 0 60439 78300.00000 0 -21384895.562 8914610.067 10691778.227 10 0 60439 79200.00000 0 -20083261.398 8164948.187 13453981.684 10 0 60439 80100.00000 0 -18596430.679 7108463.536 15955053.416 10 0 60439 81000.00000 0 -16987456.534 5740922.273 18146401.929 10 0 60439 81900.00000 0 -15320941.607 4071194.603 19985430.155 10 0 60439 82800.00000 0 -13660346.583 2121151.192 21436364.440 10 0 60439 83700.00000 0 -12065364.735 -74986.557 22470952.258 10 0 60439 84600.00000 0 -10589472.269 -2471817.065 23069015.118 10 0 60439 85500.00000 0 -9277756.892 -5014402.799 23218845.825 10 0 60440 0.00000 0 -8165115.449 -7640321.016 22917442.231 10 0 60440 900.00000 0 -7274895.451 -10282038.381 22170572.313 10 0 60440 1800.00000 0 -6618038.754 -12869508.147 20992669.349 10 0 60440 2700.00000 0 -6192761.224 -15332887.245 19406558.044 10 0 60440 3600.00000 0 -5984783.212 -17605257.075 17443016.593 10 0 60440 4500.00000 0 -5968100.352 -19625236.171 15140182.458 10 0 60440 5400.00000 0 -6106261.984 -21339375.459 12542812.918 10 0 60440 6300.00000 0 -6354102.883 -22704235.857 9701414.373 10 0 60440 7200.00000 0 -6659854.572 -23688061.057 6671257.303 10 0 60440 8100.00000 0 -6967546.170 -24271975.272 3511296.221 10 0 60440 9000.00000 0 -7219592.260 -24450655.649 283016.090 10 0 60440 9900.00000 0 -7359457.126 -24232451.346 -2950771.575 10 0 60440 10800.00000 0 -7334281.363 -23638944.697 -6127158.601 10 0 60440 11700.00000 0 -7097358.493 -22703973.667 -9184371.188 10 0 60440 12600.00000 0 -6610355.621 -21472157.609 -12062977.144 10 0 60440 13500.00000 0 -5845183.253 -19996989.413 -14707045.155 10 0 60440 14400.00000 0 -4785434.455 -18338575.272 -17065233.018 10 0 60440 15300.00000 0 -3427331.972 -16561117.989 -19091783.538 10 0 60440 16200.00000 0 -1780142.900 -14730250.182 -20747408.897 10 0 60440 17100.00000 0 133956.958 -12910329.535 -22000046.844 10 0 60440 18000.00000 0 2280563.766 -11161809.433 -22825474.739 10 0 60440 18900.00000 0 4614243.293 -9538794.555 -23207770.469 10 0 60440 19800.00000 0 7080195.999 -8086882.803 -23139612.243 10 0 60440 20700.00000 0 9616320.695 -6841382.641 -22622412.333 10 0 60440 21600.00000 0 12155591.557 -5825978.946 -21666282.913 10 0 60440 22500.00000 0 14628650.416 -5051901.604 -20289835.154 10 0 60440 23400.00000 0 16966507.373 -4517630.159 -18519815.696 10 0 60440 24300.00000 0 19103238.397 -4209145.452 -16390587.549 10 0 60440 25200.00000 0 20978568.616 -4100716.510 -13943465.196 10 0 60440 26100.00000 0 22540234.640 -4156188.694 -11225916.434 10 0 60440 27000.00000 0 23746028.267 -4330718.307 -8290645.893 10 0 60440 27900.00000 0 24565437.030 -4572880.180 -5194577.477 10 0 60440 28800.00000 0 24980813.549 -4827059.201 -1997755.018 10 0 60440 29700.00000 0 24988025.196 -5036024.765 1237817.926 10 0 60440 30600.00000 0 24596557.088 -5143579.381 4449376.950 10 0 60440 31500.00000 0 23829064.165 -5097169.410 7574611.204 10 0 60440 32400.00000 0 22720391.068 -4850347.423 10552869.889 10 0 60440 33300.00000 0 21316100.733 -4364981.717 13326337.488 10 0 60440 34200.00000 0 19670573.158 -3613119.042 15841154.911 10 0 60440 35100.00000 0 17844753.682 -2578421.063 18048464.846 10 0 60440 36000.00000 0 15903644.784 -1257112.801 19905361.108 10 0 60440 36900.00000 0 13913646.019 341598.276 21375723.586 10 0 60440 37800.00000 0 11939853.053 2195651.797 22430922.646 10 0 60440 38700.00000 0 10043428.367 4270809.038 23050379.355 10 0 60440 39600.00000 0 8279153.225 6521846.049 23221970.512 10 0 60440 40500.00000 0 6693262.923 8894217.272 22942270.451 10 0 60440 41400.00000 0 5321655.507 11326121.761 22216624.549 10 0 60440 42300.00000 0 4188548.643 13750887.111 21059052.505 10 0 60440 43200.00000 0 3305640.540 16099572.671 19491982.672 10 0 60440 44100.00000 0 2671809.796 18303684.093 17545821.918 10 0 60440 45000.00000 0 2273366.367 20297886.192 15258368.740 10 0 60440 45900.00000 0 2084842.635 22022600.804 12674080.501 10 0 60440 46800.00000 0 2070290.650 23426380.758 9843208.658 10 0 60440 47700.00000 0 2185030.077 24467960.171 6820818.740 10 0 60440 48600.00000 0 2377772.124 25117894.711 3665714.315 10 0 60440 49500.00000 0 2593028.571 25359722.689 439286.347 10 0 60440 50400.00000 0 2773702.764 25190598.011 -2795688.897 10 0 60440 51300.00000 0 2863751.610 24621368.500 -5976279.118 10 0 60440 52200.00000 0 2810804.614 23676096.633 -9040627.555 10 0 60440 53100.00000 0 2568627.839 22391043.424 -11929161.948 10 0 60440 54000.00000 0 2099327.529 20813158.975 -14585756.636 10 0 60440 54900.00000 0 1375199.321 18998143.938 -16958824.709 10 0 60440 55800.00000 0 380144.279 17008164.120 -19002318.786 10 0 60440 56700.00000 0 -889408.461 14909314.754 -20676621.128 10 0 60440 57600.00000 0 -2424111.704 12768941.026 -21949306.324 10 0 60440 58500.00000 0 -4201859.555 10652927.079 -22795762.426 10 0 60440 59400.00000 0 -6188489.820 8623066.434 -23199659.410 10 0 60440 60300.00000 0 -8339000.440 6734622.891 -23153256.834 10 0 60440 61200.00000 0 -10599229.627 5034182.637 -22657545.621 10 0 60440 62100.00000 0 -12907930.203 3557885.750 -21722221.956 10 0 60440 63000.00000 0 -15199152.421 2330109.311 -20365494.329 10 0 60440 63900.00000 0 -17404836.765 1362655.441 -18613727.713 10 0 60440 64800.00000 0 -19457509.631 654476.570 -16500931.775 10 0 60440 65700.00000 0 -21292970.419 191947.907 -14068102.779 10 0 60440 66600.00000 0 -22852858.837 -50325.582 -11362431.554 10 0 60440 67500.00000 0 -24086996.018 -108202.586 -8436392.377 10 0 60440 68400.00000 0 -24955402.277 -26254.970 -5346729.882 10 0 60440 69300.00000 0 -25429907.546 144352.398 -2153363.209 10 0 60440 70200.00000 0 -25495287.358 348261.796 1081771.759 10 0 60440 71100.00000 0 -25149876.856 528501.261 4295919.916 10 0 60440 72000.00000 0 -24405636.991 629132.629 7426721.119 10 0 60440 72900.00000 0 -23287669.883 597856.905 10413417.576 10 0 60440 73800.00000 0 -21833203.288 388466.614 13198031.076 10 0 60440 74700.00000 0 -20090086.262 -36958.950 15726487.210 10 0 60440 75600.00000 0 -18114858.520 -706208.891 17949664.813 10 0 60440 76500.00000 0 -15970473.732 -1635525.041 19824350.349 10 0 60440 77400.00000 0 -13723771.411 -2828676.282 21314078.734 10 0 60440 78300.00000 0 -11442802.503 -4276563.191 22389844.398 10 0 60440 79200.00000 0 -9194119.802 -5957371.279 23030668.760 10 0 60440 80100.00000 0 -7040145.839 -7837268.094 23224013.025 10 0 60440 81000.00000 0 -5036727.595 -9871616.730 22966028.098 10 0 60440 81900.00000 0 -3230979.668 -12006656.657 22261636.379 10 0 60440 82800.00000 0 -1659505.571 -14181583.002 21124443.344 10 0 60440 83700.00000 0 -347071.084 -16330938.562 19576480.038 10 0 60440 84600.00000 0 694215.279 -18387219.394 17647780.772 10 0 60440 85500.00000 0 1465180.795 -20283585.454 15375803.581 99